Regional Weather Roundup
Issued by NWS

Home | Current Version | Previous Version | Graphics & Text | Print | Product List | Glossary Off
Versions: 1 2 3 4 5 6 7 8 9 10 11 12 13 14 15 16 17 18 19 20 21 22 23 24 25 26 27 28 29 30 31 32 33 34 35 36 37 38 39 40 41 42 43 44 45 46 47 48 49 50

000
ASUS43 KDTX 200010
RWRMI
MICHIGAN HOURLY REGIONAL WEATHER ROUNDUP
NATIONAL WEATHER SERVICE DETROIT/PONTIAC MI
ISSUED BY NATIONAL WEATHER SERVICE GRAND RAPIDS MI
800 PM EDT SAT MAY 19 2018

NOTE: "FAIR" INDICATES FEW OR NO CLOUDS BELOW 12,000 FEET WITH NO
SIGNIFICANT WEATHER AND/OR OBSTRUCTION TO VISIBILITY.

MIZ047>049-052>055-059>063-066>070-074>076-081>083-200100-
SOUTHEAST LOWER MICHIGAN

CITY           SKY/WX    TMP DP  RH WIND       PRES   REMARKS
ADRIAN         FAIR      69  62  78 NW8       29.87R
6HR MIN TEMP:  69; 6HR MAX TEMP:  76; 6HR PCP:  0.18;

ALMA           CLOUDY    62  61  96 W8        29.87R
6HR MIN TEMP:  62; 6HR MAX TEMP:  67;

ANN ARBOR      FAIR      68  64  87 W10       29.85R
BAD AXE        CLOUDY    60  59  96 NW6       29.85R
6HR MIN TEMP:  60; 6HR MAX TEMP:  67;

DETROIT CITY   CLOUDY    72  66  81 W10       29.82S
6HR MIN TEMP:  69; 6HR MAX TEMP:  76; 6HR PCP:  0.21;

DETROIT        MOCLDY    72  64  76 W15       29.83R
6HR MIN TEMP:  71; 6HR MAX TEMP:  77; 6HR PCP:  0.11;

FLINT          CLOUDY    65  62  90 W7        29.84S
6HR MIN TEMP:  65; 6HR MAX TEMP:  75; 6HR PCP: TRACE;

GROSSE ILE     CLOUDY    69  67  93 W6        29.82S
6HR MIN TEMP:  66; 6HR MAX TEMP:  73; 6HR PCP:  0.66;

HILLSDALE      MOCLDY    64  59  82 W9        29.88R
HOWELL         CLOUDY    66  62  87 W9        29.85S
6HR MIN TEMP:  66; 6HR MAX TEMP:  76;


CITY           SKY/WX    TMP DP  RH WIND       PRES   REMARKS
JACKSON        CLOUDY    65  61  87 SW9       29.87S
6HR MIN TEMP:  65; 6HR MAX TEMP:  76;

LANSING        CLOUDY    64  60  87 W10       29.87R
6HR MIN TEMP:  64; 6HR MAX TEMP:  70; 6HR PCP:  0.01;

MASON          CLOUDY    65  60  82 W8        29.87S
6HR MIN TEMP:  65; 6HR MAX TEMP:  74;

MONROE         MOCLDY    70  65  84 W14G23    29.83S
6HR MIN TEMP:  68; 6HR MAX TEMP:  78; 6HR PCP:  0.13;

MT. CLEMENS    MOCLDY    71  71 100 SW6       29.82S
6HR MIN TEMP:  68; 6HR MAX TEMP:  76; 6HR PCP:  0.08;

PONTIAC        CLOUDY    67  65  93 NW13      29.83R
6HR MIN TEMP:  67; 6HR MAX TEMP:  78; 6HR PCP:  0.18;

PORT HOPE        N/A     52  51  97 NW3       29.82S
6HR MIN TEMP:  51; 6HR MAX TEMP:  68;

PORT HURON     FAIR      68  64  88 CALM      29.82R
TRI CITIES     CLOUDY    64  60  87 NW9       29.86R
6HR MIN TEMP:  63; 6HR MAX TEMP:  68; 6HR PCP:  0.01;

YPSILANTI      CLOUDY    72  64  76 W12       29.84R
6HR MIN TEMP:  72; 6HR MAX TEMP:  79; 6HR PCP:  0.15;

$$
MIZ043>046-050>051-056>058-064>065-071>073-077>080-200100-
SOUTHWEST LOWER MICHIGAN

CITY           SKY/WX    TMP DP  RH WIND       PRES   REMARKS
BATTLE CREEK   CLOUDY    63  58  83 W9        29.90R
6HR MIN TEMP:  63; 6HR MAX TEMP:  67; 6HR PCP: TRACE;

BENTON HARBOR  CLOUDY    59  53  80 NW5       29.93R
6HR MIN TEMP:  54; 6HR MAX TEMP:  60;

BIG RAPIDS     CLOUDY    58  54  85 N8        29.89R
6HR MIN TEMP:  58; 6HR MAX TEMP:  60;

COLDWATER      MOCLDY    64  59  83 W5        29.89S
6HR MIN TEMP:  64; 6HR MAX TEMP:  73;

HOLLAND        CLOUDY    53  50  89 NW6       29.92R
6HR MIN TEMP:  53; 6HR MAX TEMP:  60;

GRAND RAPIDS   MOCLDY    62  56  80 W13       29.88R
6HR MIN TEMP:  62; 6HR MAX TEMP:  66; 6HR PCP: TRACE;

KALAMAZOO      CLOUDY    62  55  77 W8        29.90S
6HR MIN TEMP:  62; 6HR MAX TEMP:  69; 6HR PCP: TRACE;

MARSHALL       CLOUDY    63  61  91 W9        29.89R
6HR MIN TEMP:  63; 6HR MAX TEMP:  71; 6HR PCP:  0.01;

MOUNT PLEASANT CLOUDY    62  60  94 W6        29.86R
6HR MIN TEMP:  62; 6HR MAX TEMP:  65; 6HR PCP:  0.02;

MUSKEGON       CLOUDY    57  51  80 NW6       29.90S
6HR MIN TEMP:  55; 6HR MAX TEMP:  66;

STURGIS        CLOUDY    63  59  86 W7        29.89S
6HR MIN TEMP:  63; 6HR MAX TEMP:  70;

$$
MIZ016>042-200100-
NORTHERN LOWER MICHIGAN

CITY           SKY/WX    TMP DP  RH WIND       PRES   REMARKS
ALPENA         CLOUDY    51  51 100 NW10      29.87R
6HR MIN TEMP:  49; 6HR MAX TEMP:  54; 6HR PCP:  0.20;

BEAVER ISLAND  CLOUDY    52  49  89 W6        29.92S
6HR MIN TEMP:  46; 6HR MAX TEMP:  55;

BELLAIRE       CLOUDY    54  49  86 CALM      29.90S
6HR MIN TEMP:  51; 6HR MAX TEMP:  58;

CADILLAC       CLOUDY    55  55  99 W5        29.87S
CHARLEVOIX     CLOUDY    46  46 100 N5        29.94R
6HR MIN TEMP:  44; 6HR MAX TEMP:  54;

GAYLORD        FOG       51  51 100 NW6       29.88R VSB 3/4
6HR MIN TEMP:  51; 6HR MAX TEMP:  56; 6HR PCP:  0.05;

HOUGHTON LAKE  CLOUDY    56  54  93 NW12      29.88R
6HR MIN TEMP:  56; 6HR MAX TEMP:  60; 6HR PCP:  0.05;

MANISTEE       FAIR      50  47  89 N6        29.90S
OSCODA         CLOUDY    58  57  98 N3        29.84R
6HR MIN TEMP:  51; 6HR MAX TEMP:  62; 6HR PCP:  0.01;

PELLSTON       CLOUDY    53  49  86 NW8       29.91R
6HR MIN TEMP:  49; 6HR MAX TEMP:  53; 6HR PCP: TRACE;

TRAVERSE CITY  CLOUDY    51  47  86 NE3       29.90R
6HR MIN TEMP:  50; 6HR MAX TEMP:  59;

LUDINGTON      PTSUNNY   53  49  89 CALM      29.89F
6HR MIN TEMP:  50; 6HR MAX TEMP:  59;

$$
MIZ007>008-015-200100-
EASTERN UPPER MICHIGAN

CITY           SKY/WX    TMP DP  RH WIND       PRES   REMARKS
KINROSS        CLOUDY    53  51  93 NW13      29.89R
6HR MIN TEMP:  48; 6HR MAX TEMP:  53;

MACKINAC ISLAN CLOUDY    49  49 100 W8        29.90R
6HR MIN TEMP:  44; 6HR MAX TEMP:  53; 6HR PCP:  0.02;

NEWBERRY       CLOUDY    53  41  63 NW12      29.92R
6HR MIN TEMP:  49; 6HR MAX TEMP:  57; 6HR PCP:  0.01;

S. S. MARIE    CLOUDY    52  49  89 NW8       29.89R
6HR MIN TEMP:  50; 6HR MAX TEMP:  54; 6HR PCP:  0.10;

$$
MIZ004>006-011>014-085-200100-
CENTRAL UPPER MICHIGAN

CITY           SKY/WX    TMP DP  RH WIND       PRES   REMARKS
MANISTIQUE     FAIR      44  40  83 NW18G25   29.95R
6HR MIN TEMP:  44; 6HR MAX TEMP:  61; 6HR PCP:  0.01;

ESCANABA       CLOUDY    48  39  71 N13G30    29.99R
6HR MIN TEMP:  48; 6HR MAX TEMP:  61; 6HR PCP: TRACE;

SAWYER-GWINN   LGT RAIN  39  36  87 N16G22    30.04R WCI  30
$$
MIZ001>003-009>011-084-200100-
WESTERN UPPER MICHIGAN

CITY           SKY/WX    TMP DP  RH WIND       PRES   REMARKS
IRON MOUNTAIN  CLOUDY    47  41  80 NW16G26   30.02R
6HR MIN TEMP:  47; 6HR MAX TEMP:  74;

HOUGHTON       CLOUDY    44  35  70 N17G26    30.10R
6HR MIN TEMP:  40; 6HR MAX TEMP:  44; 6HR PCP:  0.02;

COPPER HARBOR    N/A     41  36  82 N16       30.10R
6HR MIN TEMP:  40; 6HR MAX TEMP:  42; 6HR PCP:  0.03;

IRONWOOD       CLOUDY    46  36  68 NE14      30.12S
6HR MIN TEMP:  41; 6HR MAX TEMP:  47;

$$

ABBREVIATIONS USED IN REMARKS
   TC - TEMPERATURE IN CELSIUS
  WCI - WIND CHILL INDEX
   HX - HEAT INDEX
  VSB - VISIBILITY





USA.gov is the U.S. government's official web portal to all federal, state and local government web resources and services.